This is the latest recevied weather packets stored in our database for station/object N2WH. If no packets are shown the sender has not sent any weather packets the latest 10 day(s).
| Time | Temp. | Humidity | Pressure | Rain* | Wind** | Luminosity | Snow |
|---|---|---|---|---|---|---|---|
| 1778097853 | 15.56° C | 98% | 1007.6 hPa | 0 mm | - | 39 W/m² | - |
| 1778097550 | 15.56° C | 98% | 1007.6 hPa | 0 mm | - | 37 W/m² | - |
| 1778097247 | 16.11° C | 98% | 1007.6 hPa | 0 mm | - | 52 W/m² | - |
| 1778096944 | 15.56° C | 98% | 1007.7 hPa | 1.27 mm | - | 62 W/m² | - |
| 1778096641 | 16.11° C | 98% | 1008 hPa | 1.27 mm | - | 59 W/m² | - |
| 1778096338 | 15.56° C | 98% | 1008 hPa | 0 mm | - | 83 W/m² | - |
| 1778096035 | 15.56° C | 98% | 1008.2 hPa | 0 mm | - | 62 W/m² | - |
| 1778095731 | 15.56° C | 98% | 1008.2 hPa | 0 mm | - | 53 W/m² | - |
| 1778095428 | 15.56° C | 98% | 1008.2 hPa | 1.78 mm | - | 35 W/m² | - |
| 1778095125 | 15.56° C | 97% | 1008.4 hPa | 1.78 mm | - | 41 W/m² | - |
| 1778094821 | 15.56° C | 97% | 1008.4 hPa | 0 mm | - | 43 W/m² | - |
| 1778094518 | 15.56° C | 97% | 1008.4 hPa | 1.27 mm | - | 32 W/m² | - |
| 1778094214 | 16.11° C | 97% | 1008.2 hPa | 1.27 mm | - | 34 W/m² | - |
| 1778093912 | 16.11° C | 97% | 1008.3 hPa | 0 mm | - | 25 W/m² | - |
| 1778093609 | 16.11° C | 96% | 1008.4 hPa | 0 mm | - | 41 W/m² | - |
| 1778093305 | 16.11° C | 96% | 1008.3 hPa | 0 mm | - | 47 W/m² | - |
| 1778093003 | 16.11° C | 96% | 1008.3 hPa | 1.78 mm | - | 49 W/m² | - |
| 1778092701 | 16.11° C | 95% | 1008.6 hPa | 1.78 mm | - | 32 W/m² | - |
| 1778092395 | 16.11° C | 95% | 1008.7 hPa | 0 mm | - | 26 W/m² | - |
| 1778092093 | 16.11° C | 95% | 1008.5 hPa | 0 mm | - | 29 W/m² | - |
| 1778091790 | 16.11° C | 95% | 1008.7 hPa | 0 mm | - | 34 W/m² | - |
| 1778091488 | 16.11° C | 95% | 1008.6 hPa | 0 mm | - | 26 W/m² | - |
| 1778091185 | 16.11° C | 95% | 1008.6 hPa | 0 mm | - | 39 W/m² | - |
| 1778090882 | 16.67° C | 95% | 1008.8 hPa | 0 mm | - | 67 W/m² | - |
| 1778090578 | 16.11° C | 95% | 1008.9 hPa | 0 mm | - | 57 W/m² | - |
* Rain latest hour (hover to see other rain measurements)
** Current wind speed in m/s (hover to see current wind gust speed)